| time (UTC) | temp C | wind direction | speed KPH | gust KPH | rain 1hr cm | rain 24hr cm | rain mn cm | humidity % | barometer mb |
| 20260504015040 | 10 | 259 | 0.0 | 0.0 | 0.00 | 0.00 | 0.00 | 39 | 1016.5 |
| 20260504014031 | 10 | 259 | 0.0 | 0.0 | 0.00 | 0.00 | 0.00 | 38 | 1016.6 |
| 20260504013026 | 11 | 259 | 0.0 | 0.0 | 0.00 | 0.00 | 0.00 | 37 | 1016.4 |
| 20260504012040 | 11 | 259 | 0.0 | 0.0 | 0.00 | 0.00 | 0.00 | 34 | 1016.5 |
| 20260504011031 | 11 | 259 | 0.0 | 0.0 | 0.00 | 0.00 | 0.00 | 33 | 1016.5 |
| 20260504010024 | 12 | 259 | 0.0 | 0.0 | 0.00 | 0.00 | 0.00 | 33 | 1016.5 |
| 20260504005024 | 12 | 259 | 0.0 | 0.0 | 0.00 | 0.00 | 0.00 | 33 | 1016.4 |
| 20260504004020 | 12 | 259 | 0.0 | 0.0 | 0.00 | 0.00 | 0.00 | 32 | 1016.7 |
| 20260504003033 | 12 | 246 | 0.0 | 0.0 | 0.00 | 0.00 | 0.00 | 30 | 1016.6 |
| 20260504001026 | 12 | 284 | 0.0 | 0.0 | 0.00 | 0.00 | 0.00 | 33 | 1016.7 |
| 20260504000023 | 12 | 277 | 0.0 | 0.0 | 0.00 | 0.00 | 0.00 | 31 | 1016.8 |
| 20260503235037 | 12 | 310 | 0.0 | 0.0 | 0.00 | 0.00 | 0.00 | 33 | 1016.9 |
| 20260503233023 | 12 | 188 | 0.0 | 0.0 | 0.00 | 0.00 | 0.00 | 33 | 1017.0 |
| 20260503232033 | 12 | 329 | 0.0 | 0.0 | 0.00 | 0.00 | 0.00 | 35 | 1017.2 |
| 20260503231028 | 12 | 306 | 0.0 | 0.0 | 0.00 | 0.00 | 0.00 | 35 | 1017.1 |
| 20260503230029 | 12 | 294 | 0.0 | 0.0 | 0.00 | 0.00 | 0.00 | 34 | 1017.2 |
| 20260503225023 | 11 | 301 | 0.0 | 0.0 | 0.00 | 0.00 | 0.00 | 36 | 1017.2 |
| 20260503224038 | 11 | 295 | 3.2 | 0.0 | 0.00 | 0.00 | 0.00 | 40 | 1017.4 |
| 20260503223029 | 10 | 360 | 3.2 | 0.0 | 0.00 | 0.00 | 0.00 | 46 | 1018.0 |
| 20260503221020 | 13 | 264 | 1.6 | 0.0 | 0.00 | 0.00 | 0.00 | 34 | 1017.7 |
| 20260503220037 | 13 | 281 | 3.2 | 0.0 | 0.00 | 0.00 | 0.00 | 32 | 1017.6 |
| 20260503215028 | 13 | 265 | 1.6 | 0.0 | 0.00 | 0.00 | 0.00 | 33 | 1017.9 |
| 20260503213038 | 12 | 214 | 3.2 | 0.0 | 0.00 | 0.00 | 0.00 | 35 | 1018.0 |
| 20260503212033 | 13 | 13 | 1.6 | 0.0 | 0.00 | 0.00 | 0.00 | 31 | 1017.8 |
| 20260503211028 | 13 | 355 | 0.0 | 0.0 | 0.00 | 0.00 | 0.00 | 31 | 1017.9 |
| 20260503210020 | 13 | 264 | 0.0 | 0.0 | 0.00 | 0.00 | 0.00 | 30 | 1018.2 |
| 20260503205033 | 13 | 291 | 3.2 | 0.0 | 0.00 | 0.00 | 0.00 | 28 | 1018.3 |
| 20260503203028 | 15 | 256 | 1.6 | 0.0 | 0.00 | 0.00 | 0.00 | 30 | 1018.5 |
| 20260503202022 | 14 | 340 | 1.6 | 0.0 | 0.00 | 0.00 | 0.00 | 31 | 1018.6 |
| 20260503201038 | 14 | 249 | 1.6 | 0.0 | 0.00 | 0.00 | 0.00 | 30 | 1018.9 |
| 20260503200030 | 13 | 227 | 0.0 | 0.0 | 0.00 | 0.00 | 0.00 | 30 | 1018.5 |
| 20260503195026 | 13 | 289 | 1.6 | 0.0 | 0.00 | 0.00 | 0.00 | 31 | 1018.6 |
| 20260503194022 | 13 | 257 | 1.6 | 0.0 | 0.00 | 0.00 | 0.00 | 32 | 1018.6 |
| 20260503193036 | 13 | 321 | 1.6 | 0.0 | 0.00 | 0.00 | 0.00 | 31 | 1018.7 |
| 20260503192030 | 12 | 225 | 1.6 | 0.0 | 0.00 | 0.00 | 0.00 | 34 | 1018.8 |
| 20260503191022 | 12 | 331 | 1.6 | 0.0 | 0.00 | 0.00 | 0.00 | 33 | 1019.2 |
| 20260503185034 | 12 | 233 | 0.0 | 0.0 | 0.00 | 0.00 | 0.00 | 35 | 1019.6 |
| 20260503184025 | 12 | 60 | 0.0 | 0.0 | 0.00 | 0.00 | 0.00 | 33 | 1019.3 |
| 20260503183022 | 12 | 196 | 3.2 | 0.0 | 0.00 | 0.00 | 0.00 | 33 | 1019.6 |
| 20260503182036 | 13 | 280 | 1.6 | 0.0 | 0.00 | 0.00 | 0.00 | 31 | 1020.0 |
| 20260503181034 | 13 | 260 | 1.6 | 0.0 | 0.00 | 0.00 | 0.00 | 30 | 1019.9 |
| 20260503180030 | 13 | 242 | 4.8 | 0.0 | 0.00 | 0.00 | 0.00 | 33 | 1019.8 |
| 20260503175022 | 13 | 289 | 3.2 | 0.0 | 0.00 | 0.00 | 0.00 | 31 | 1020.0 |
| 20260503174040 | 13 | 270 | 1.6 | 0.0 | 0.00 | 0.00 | 0.00 | 31 | 1020.4 |
| 20260503173031 | 13 | 209 | 1.6 | 0.0 | 0.00 | 0.00 | 0.00 | 29 | 1020.5 |
| 20260503171022 | 13 | 344 | 1.6 | 0.0 | 0.00 | 0.00 | 0.00 | 32 | 1020.8 |
| 20260503131025 | 5 | 173 | 0.0 | 0.0 | 0.00 | 0.00 | 0.00 | 57 | 1021.7 |
| 20260503072031 | 3 | 296 | 4.8 | 0.0 | 0.00 | 0.00 | 0.00 | 50 | 1022.4 |
| 20260503071022 | 3 | 296 | 4.8 | 0.0 | 0.00 | 0.00 | 0.00 | 49 | 1022.5 |
| 20260503054026 | 3 | 338 | 0.0 | 0.0 | 0.00 | 0.00 | 0.03 | 49 | 1022.6 |
| 20260503053021 | 3 | 338 | 0.0 | 0.0 | 0.00 | 0.00 | 0.03 | 49 | 1022.5 |
| 20260503051031 | 3 | 338 | 0.0 | 0.0 | 0.00 | 0.00 | 0.03 | 51 | 1022.6 |
| 20260503050027 | 4 | 338 | 0.0 | 0.0 | 0.00 | 0.00 | 0.03 | 49 | 1022.7 |
| 20260503044037 | 5 | 338 | 0.0 | 0.0 | 0.00 | 0.00 | 0.03 | 47 | 1022.9 |
| 20260503043030 | 5 | 338 | 0.0 | 0.0 | 0.00 | 0.00 | 0.03 | 47 | 1023.0 |
| 20260503040022 | 5 | 337 | 0.0 | 0.0 | 0.00 | 0.00 | 0.03 | 47 | 1022.3 |
| 20260503034034 | 5 | 337 | 0.0 | 0.0 | 0.00 | 0.00 | 0.03 | 49 | 1022.0 |
| 20260503033025 | 5 | 338 | 0.0 | 0.0 | 0.00 | 0.00 | 0.03 | 49 | 1021.9 |
| 20260503031039 | 5 | 338 | 0.0 | 0.0 | 0.00 | 0.00 | 0.03 | 48 | 1021.7 |
| 20260503030034 | 5 | 337 | 0.0 | 0.0 | 0.00 | 0.00 | 0.03 | 48 | 1021.6 |
| 20260503025028 | 6 | 337 | 0.0 | 0.0 | 0.00 | 0.00 | 0.03 | 47 | 1021.7 |
| 20260503024042 | 6 | 338 | 0.0 | 0.0 | 0.00 | 0.00 | 0.03 | 48 | 1021.6 |
| 20260503023036 | 6 | 338 | 0.0 | 0.0 | 0.00 | 0.00 | 0.03 | 46 | 1021.4 |
| 20260503021030 | 8 | 337 | 0.0 | 0.0 | 0.00 | 0.00 | 0.03 | 44 | 1021.2 |
| 20260503020029 | 8 | 337 | 0.0 | 0.0 | 0.00 | 0.00 | 0.03 | 42 | 1021.1 |